Home > Weather > Providence > Past weeks

Flag for USA Past Weather in Providence, Rhode Island, USA — Yesterday and Last 2 Weeks

Now
75 °F

Passing clouds.


Feels Like: 77 °F
Forecast: 62 / 85 °F
Wind: 10 mph from South

Location: Green State Airport

Current Time: Aug 27, 2016 at 8:33:55 PM

Latest Report: Aug 27, 2016 at 7:51 PM


Visibility: 10 mi

Pressure: 30.20 "Hg

Humidity: 71%

Dew Point: 65 °F

Location of ProvidenceLocation

Past Weather in Providence — Graph

°F

Providence Temperature Yesterday

Maximum temperature yesterday: 91 °F (at 3:51 PM)
Minimum temperature yesterday: 74 °F (at 12:51 AM)
Average temperature yesterday: 81 °F

High & Low Weather Summary for the Past Weeks

 TemperatureHumidityPressure
High96 °F (Aug 14, 2:51 PM)97% (Aug 14, 6:51 AM)30.30 "Hg (Aug 14, 6:51 AM)
Low57 °F (Aug 23, 1:51 AM)31% (Aug 23, 12:51 PM)29.75 "Hg (Aug 22, 2:51 AM)
Average77 °F67%30.02 "Hg
* Reported Aug 12 6:51 PM — Aug 27 6:51 PM, Providence, Weather by CustomWeather, © 2016

Note: Actual official high and low records may vary slightly from our data, if they occured in-between our weather recording intervals... More about our weather records

Advertising

Providence Weather History for the Previous 24 Hours

Scroll right to see more
 ConditionsComfort  
Time TempWeatherWind HumidityBarometerVisibility
6:51 PM
Sat, Aug 27
78 °FPassing clouds.9 mph60%30.19 "Hg10 mi
5:51 PM83 °FScattered clouds.10 mph41%30.17 "Hg10 mi
4:51 PM85 °FBroken clouds.14 mph39%30.16 "Hg10 mi
3:51 PM84 °FScattered clouds.10 mph43%30.16 "Hg10 mi
2:51 PM87 °FPartly sunny.6 mph37%30.15 "Hg10 mi
1:51 PM87 °FBroken clouds.9 mph39%30.16 "Hg10 mi
12:51 PM88 °FBroken clouds.8 mph35%30.17 "Hg10 mi
11:51 AM86 °FPartly sunny.6 mph36%30.18 "Hg10 mi
10:51 AM85 °FScattered clouds.6 mph40%30.18 "Hg10 mi
9:51 AM81 °FScattered clouds.7 mph45%30.18 "Hg10 mi
8:51 AM78 °FPartly sunny.6 mph54%30.18 "Hg10 mi
7:51 AM74 °FPartly sunny.6 mph62%30.16 "Hg10 mi
6:51 AM71 °FPassing clouds.3 mph68%30.14 "Hg10 mi
5:51 AM70 °FPassing clouds.6 mph71%30.11 "Hg10 mi
4:51 AM71 °FClear.5 mph71%30.10 "Hg10 mi
3:51 AM73 °FClear.6 mph69%30.09 "Hg10 mi
2:51 AM73 °FClear.7 mph71%30.08 "Hg10 mi
1:51 AM75 °FClear.7 mph69%30.07 "Hg10 mi
12:51 AM77 °FClear.7 mph64%30.05 "Hg10 mi
11:51 PM
Fri, Aug 26
78 °FClear.6 mph62%30.03 "Hg10 mi
10:51 PM79 °FClear.7 mph65%30.02 "Hg10 mi
9:51 PM80 °FClear.5 mph67%30.01 "Hg10 mi
8:51 PM82 °FClear.6 mph60%29.99 "Hg10 mi
Weather by CustomWeather, © 2016

See weather overviewHow to use our weather pages